{"data":{"norad_id":40880,"epoch":"2026-09-20T03:37:40.851264Z","epoch_age_seconds":52031,"freshness":"FRESH","line1":"1 40880U 15041A   26263.15116726 -.00000164  00000+0  00000+0 0  9999","line2":"2 40880   2.1579  81.2826 0002922 101.5603 313.1443  1.00273427 40553","mean_motion":1.00273427,"eccentricity":0.0002922,"inclination_deg":2.1579,"raan_deg":81.2826,"arg_perigee_deg":101.5603,"mean_anomaly_deg":313.1443,"bstar":0,"rev_number":4055,"period_min":1436.0733876184,"perigee_km":35773.814255088,"apogee_km":35798.455055443,"semimajor_km":42164.271655266,"source":"CELESTRAK","updated_at":"2026-09-20T09:00:35.218372Z"}}